Location: Lachepaillet
(43.4918°N, 1.4874°W)
Time: 02:36:53
(UTC+00:00)

COSMOS 2428 - Pass Details

Date: 15 May 2026
Orbit: 844 x 855 km, 70.9° (Epoch: 8 June)

Event Time Altitude Azimuth Distance (km) Brightness Sun altitude
Rises 22:50:34 0° 337° (NNW) 3,422 7.2 -25.3°
Reaches altitude 10° 22:53:04 10° 342° (NNW) 2,481 6.2 -25.5°
Maximum altitude 22:58:42 59° 61° (ENE) 974 3.0 -25.8°
Enters shadow 22:59:33 53° 98° (E) 1,032 2.9 -25.8°
